Location: Newark
(30.1000°N, 109.4667°E)
Time: 22:00:10
(UTC+00:00)

Explorer 7 - Visible Passes

Search period start: 28 February 2020 00:00
Search period end: 09 March 2020 00:00
Orbit: 485 x 679 km, 50.3° (Epoch: 27 February)

Date Brightness Start Highest point End Pass type
(mag) Time Alt. Az. Time Alt. Az. Time Alt. Az.
04 Mar 10.0 21:41:55 10° SSE 21:44:33 15° SE 21:47:13 10° E visible
05 Mar 9.3 21:45:15 10° S 21:49:14 26° SE 21:53:16 10° ENE visible
06 Mar 8.3 21:49:23 10° SSW 21:53:59 45° SE 21:58:39 10° ENE visible
07 Mar 7.3 21:54:25 13° SW 21:58:48 79° SE 22:03:43 10° NE visible
08 Mar 9.6 20:23:40 17° ESE 20:23:40 17° ESE 20:26:39 10° E visible
08 Mar 7.3 22:00:02 17° WSW 22:03:42 62° NW 22:08:34 10° NE visible
